DW7783 Weather Reports


Display with metric or nautical units.
time (UTC)temp
F
wind
direction
speed
MPH
gust
MPH
rain 1hr
in
rain 24hr
in
rain mn
in
humidity
%
barometer
mb
20190118081523 34 46 2.0 0.0 0.00 0.00 0.00 77 1016.7
20190118080013 32 61 1.0 0.0 0.00 0.00 0.00 83 1016.7
20190118074508 31 37 1.0 0.0 0.00 0.00 0.00 83 1017.0
20190118073131 31 37 1.0 0.0 0.00 0.00 0.00 83 1016.8
20190118071650 31 57 2.0 0.0 0.00 0.00 0.00 83 1016.5
20190118070143 31 61 3.0 0.0 0.00 0.00 0.00 83 1016.4
20190118064708 31 52 3.0 0.0 0.00 0.00 0.00 83 1016.4
20190118063136 32 68 2.0 0.0 0.00 0.00 0.00 81 1016.4
20190118061615 33 61 2.0 0.0 0.00 0.00 0.00 80 1016.0
20190118060139 34 56 2.0 0.0 0.00 0.00 0.00 78 1015.6
20190118054746 34 60 1.0 0.0 0.00 0.00 0.00 80 1015.5
20190118053135 33 59 1.0 0.0 0.00 0.00 0.00 81 1015.4
20190118051628 33 59 1.0 0.0 0.00 0.00 0.00 82 1015.3
20190118050131 33 59 1.0 0.0 0.00 0.00 0.00 81 1014.7
20190118044646 34 57 2.0 0.0 0.00 0.00 0.00 82 1015.0
20190118043103 33 54 2.0 0.0 0.00 0.00 0.00 82 1014.9
20190118041729 33 70 2.0 0.0 0.00 0.00 0.00 83 1014.8
20190118040058 33 65 2.0 0.0 0.00 0.00 0.00 84 1014.8
20190118034622 33 61 2.0 0.0 0.00 0.00 0.00 84 1014.7
20190118033112 33 69 3.0 0.0 0.00 0.00 0.00 84 1014.7
20190118031544 33 62 3.0 0.0 0.00 0.00 0.00 83 1014.8
20190118030123 33 54 2.0 0.0 0.00 0.00 0.00 83 1015.2
20190118024545 34 54 3.0 0.0 0.00 0.00 0.00 84 1015.3
20190118023040 34 44 2.0 0.0 0.00 0.00 0.00 84 1015.2
20190118021600 34 55 2.0 0.0 0.00 0.00 0.00 83 1015.0
20190118020048 35 53 1.0 0.0 0.00 0.00 0.00 83 1014.8
20190118014557 36 54 2.0 0.0 0.00 0.00 0.00 82 1014.5
20190118013049 36 54 2.0 0.0 0.00 0.00 0.00 82 1014.7
20190118011522 36 59 2.0 0.0 0.00 0.00 0.00 82 1014.7
20190118010043 36 56 2.0 0.0 0.00 0.00 0.00 80 1014.5
20190118004600 37 63 2.0 0.0 0.00 0.00 0.00 79 1014.5
20190118003039 38 58 2.0 0.0 0.00 0.00 0.00 78 1014.6
20190118001515 38 50 1.0 0.0 0.00 0.00 0.00 78 1014.7
20190118000022 38 51 1.0 0.0 0.00 0.00 0.00 76 1014.8
20190117234511 39 51 1.0 0.0 0.00 0.00 0.00 75 1015.0
20190117233223 41 48 3.0 0.0 0.00 0.00 0.00 71 1014.8
20190117231715 42 34 3.0 0.0 0.00 0.00 0.00 69 1014.7
20190117230200 43 46 4.0 0.0 0.00 0.00 0.00 68 1015.0
20190117224627 43 57 5.0 0.0 0.00 0.00 0.00 66 1014.7
20190117223208 43 61 4.0 0.0 0.00 0.00 0.00 65 1014.7
20190117221615 43 58 3.0 0.0 0.00 0.00 0.00 64 1014.7
20190117220121 43 46 3.0 0.0 0.00 0.00 0.00 65 1015.0
20190117214553 43 44 3.0 0.0 0.00 0.00 0.00 64 1015.0
20190117213123 43 41 3.0 0.0 0.00 0.00 0.00 64 1015.0
20190117211601 44 34 3.0 0.0 0.00 0.00 0.00 63 1014.8
20190117210124 44 34 3.0 0.0 0.00 0.00 0.00 62 1015.1
20190117204538 44 46 2.0 0.0 0.00 0.00 0.00 62 1015.0
20190117203118 44 46 3.0 0.0 0.00 0.00 0.00 62 1014.9
20190117201628 44 22 3.0 0.0 0.00 0.00 0.00 62 1014.9
20190117200042 43 45 1.0 0.0 0.00 0.00 0.00 63 1015.2
20190117194614 43 56 1.0 0.0 0.00 0.00 0.00 63 1015.0
20190117193048 43 282 1.0 0.0 0.00 0.00 0.00 63 1014.8
20190117191550 42 280 0.0 0.0 0.00 0.00 0.00 64 1014.8
20190117190108 43 280 0.0 0.0 0.00 0.00 0.00 63 1014.9
20190117184543 42 280 0.0 0.0 0.00 0.00 0.00 62 1014.8
20190117183103 42 280 0.0 0.0 0.00 0.00 0.00 62 1014.5
20190117181647 43 280 0.0 0.0 0.00 0.00 0.00 59 1014.2
20190117180051 44 279 0.0 0.0 0.00 0.00 0.00 58 1014.1
20190117174550 45 279 0.0 0.0 0.00 0.00 0.00 56 1013.6
20190117173050 45 280 4.0 0.0 0.00 0.00 0.00 54 1013.4
20190117171550 46 277 4.0 0.0 0.00 0.00 0.00 52 1013.1
20190117170102 48 277 5.0 0.0 0.00 0.00 0.00 49 1012.8
20190117164551 49 296 5.0 0.0 0.00 0.00 0.00 47 1012.6
20190117163106 50 284 6.0 0.0 0.00 0.00 0.00 46 1012.4
20190117161542 51 271 5.0 0.0 0.00 0.00 0.00 45 1012.2
20190117160030 51 274 5.0 0.0 0.00 0.00 0.00 45 1012.3
20190117154620 51 266 4.0 0.0 0.00 0.00 0.00 45 1012.3
20190117153108 50 263 5.0 0.0 0.00 0.00 0.00 47 1012.5
20190117151608 49 291 3.0 0.0 0.00 0.00 0.00 50 1012.6
20190117150105 49 285 3.0 0.0 0.00 0.00 0.00 50 1012.3
20190117144534 49 289 3.0 0.0 0.00 0.00 0.00 51 1012.3
20190117143048 50 283 4.0 0.0 0.00 0.00 0.00 49 1012.4
20190117141545 50 302 1.0 0.0 0.00 0.00 0.00 48 1012.6
20190117140048 49 291 3.0 0.0 0.00 0.00 0.00 49 1012.8
20190117134552 49 144 4.0 0.0 0.00 0.00 0.00 55 1012.8
20190117133021 49 144 1.0 0.0 0.00 0.00 0.00 55 1013.0
20190117131523 50 144 2.0 0.0 0.00 0.00 0.00 54 1013.3
20190117130015 50 144 2.0 0.0 0.00 0.00 0.00 54 1013.1
20190117124549 50 144 3.0 0.0 0.00 0.00 0.00 54 1013.3
20190117123014 52 145 3.0 0.0 0.00 0.00 0.00 54 1013.5
20190117121514 50 214 3.0 0.0 0.00 0.00 0.00 58 1013.7
20190117120004 49 239 3.0 0.0 0.00 0.00 0.00 60 1013.9
20190117114642 48 232 2.0 0.0 0.00 0.00 0.00 62 1014.3
20190117113152 47 171 1.0 0.0 0.00 0.00 0.00 63 1014.7
20190117111608 46 40 0.0 0.0 0.00 0.00 0.00 62 1015.0
20190117110121 45 40 0.0 0.0 0.00 0.00 0.00 66 1015.1
20190117104622 43 40 0.0 0.0 0.00 0.00 0.00 70 1015.3
20190117103124 43 40 0.0 0.0 0.00 0.00 0.00 69 1015.3
20190117101612 43 40 0.0 0.0 0.00 0.00 0.00 69 1015.6
20190117094612 38 40 0.0 0.0 0.00 0.00 0.00 77 1015.9
20190117093101 36 38 1.0 0.0 0.00 0.00 0.00 84 1015.8
20190117091612 34 61 1.0 0.0 0.00 0.00 0.00 83 1015.9
20190117090106 34 47 1.0 0.0 0.00 0.00 0.00 85 1015.8
20190117084632 33 51 2.0 0.0 0.00 0.00 0.00 84 1016.0